Lake Charles, LA

1:09 AM CST on November 15, 2019 (GMT -0600)
Chennault International

Weather History for KCWF - October, 2019

Change the Weather History Date:

Thursday, October 17, 2019

  Actual Average Record
Temperature  
Mean Temperature 58 °F -  
Max Temperature 63 °F 77 °F 91 °F (2006)
Min Temperature 53 °F 62 °F 46 °F (2001)
Degree Days  
Heating Degree Days 8    
Growing Degree Days 8 (Base 50)    
Moisture  
Dew Point 51 °F    
Average Humidity 80    
Maximum Humidity 88    
Minimum Humidity 63    
Precipitation  
Precipitation 0.01 in - - ()
Sea Level Pressure  
Sea Level Pressure 30.01 in    
Wind  
Wind Speed 6 mph ()    
Max Wind Speed 12 mph    
Max Gust Speed 17 mph    
Visibility 10.0 miles    
Events      
Averages and records for this station are not official NWS values.
T = Trace of Precipitation, MM = Missing Value Source: Averaged Metar Reports

Daily Weather History Graph

Daily Weather History Graph

Search for Another Location

Airport or City:

Astronomy

Oct. 17, 2019 Rise Set
Actual Time 7:15 AM CDT 6:39 PM CDT
Civil Twilight 6:51 AM CDT 7:03 PM CDT
Nautical Twilight 6:23 AM CDT 7:31 PM CDT
Astronomical Twilight 5:55 AM CDT 7:59 PM CDT
Moon 9:25 PM CDT (10/17) 10:36 AM CDT (10/17)
Length of Visible Light 12h 12m
Length of Day
11h 23m
Waning Gibbous, 86% of the Moon is Illuminated
Oct 17
Waning Gibbous
Oct 21
Last Quarter
Oct 27
New
Nov 4
First Quarter
Nov 12
Full

Hourly Weather History & Observations

Time (CDT) Temp. Dew Point Humidity Pressure Visibility Wind Dir Wind Speed Gust Speed Precip Events Conditions
12:15 AM 58.1 °F 53.1 °F 83% 30.07 in 10.0 mi NNE 11.5 mph 17.3 mph N/A   Clear
12:35 AM 57.7 °F 52.7 °F 83% 30.06 in 10.0 mi NNE 10.4 mph 17.3 mph N/A   Clear
12:55 AM 57.4 °F 51.8 °F 82% 30.06 in 10.0 mi NNE 8.1 mph - N/A   Clear
1:15 AM 56.8 °F 51.8 °F 83% 30.06 in 10.0 mi NNE 5.8 mph - N/A   Clear
1:35 AM 56.7 °F 51.6 °F 83% 30.05 in 10.0 mi NNE 4.6 mph - N/A   Clear
1:55 AM 56.5 °F 51.4 °F 83% 30.06 in 10.0 mi NE 4.6 mph - N/A   Clear
2:15 AM 56.3 °F 51.3 °F 83% 30.05 in 10.0 mi NE 6.9 mph - N/A   Clear
2:35 AM 55.9 °F 51.1 °F 84% 30.05 in 10.0 mi NE 4.6 mph - N/A   Clear
2:55 AM 55.6 °F 50.7 °F 84% 30.05 in 10.0 mi NE 4.6 mph - N/A   Clear
3:35 AM 54.9 °F 50.7 °F 86% 30.02 in 10.0 mi NE 5.8 mph - 0.01 in   Clear
3:55 AM 54.9 °F 50.4 °F 85% 30.02 in 10.0 mi NE 5.8 mph - 0.01 in   Clear
4:15 AM 54.7 °F 50.9 °F 87% 30.02 in 10.0 mi North 6.9 mph - N/A   Clear
4:35 AM 54.1 °F 50.5 °F 88% 30.02 in 10.0 mi NNE 8.1 mph - N/A   Clear
4:55 AM 54.3 °F 50.4 °F 86% 30.02 in 10.0 mi NNE 6.9 mph - N/A   Clear
5:15 AM 54.1 °F 50.2 °F 86% 30.04 in 10.0 mi NNE 5.8 mph - N/A   Clear
5:35 AM 54.1 °F 50.0 °F 86% 30.04 in 10.0 mi NNE 4.6 mph - N/A   Clear
6:00 AM 53.6 °F 50.0 °F 88% 30.04 in 10.0 mi NNE 6.9 mph - N/A   Clear
6:53 AM 53.6 °F 50.0 °F 88% 30.05 in 10.0 mi NNE 6.9 mph - N/A   Clear
7:50 AM 53.6 °F 50.0 °F 88% 30.05 in 10.0 mi NNE 6.9 mph - N/A   Clear
8:47 AM 55.4 °F 48.2 °F 77% 30.06 in 10.0 mi NE 8.1 mph - N/A   Clear
9:50 AM 57.2 °F 50.0 °F 77% 30.07 in 10.0 mi NE 8.1 mph - N/A   Mostly Cloudy
11:45 AM 60.8 °F 50.0 °F 68% 30.04 in 10.0 mi ENE 10.4 mph - N/A   Clear
12:45 PM 62.6 °F 50.0 °F 63% 30.02 in 10.0 mi ENE 10.4 mph 17.3 mph N/A   Clear
2:45 PM 62.6 °F 50.0 °F 63% 29.98 in 10.0 mi NE 9.2 mph - N/A   Clear
3:45 PM 62.6 °F 51.8 °F 68% 29.99 in 10.0 mi NE 3.5 mph - N/A   Overcast
4:45 PM 60.8 °F 51.8 °F 72% 29.97 in 10.0 mi North 8.1 mph - N/A   Overcast
5:45 PM 60.8 °F 53.6 °F 77% 29.95 in 10.0 mi North 5.8 mph - N/A   Overcast
6:45 PM 60.8 °F 53.6 °F 77% 29.95 in 10.0 mi NNE 8.1 mph - N/A   Overcast
7:45 PM 60.8 °F 51.8 °F 72% 29.93 in 10.0 mi NNE 8.1 mph - N/A   Clear
8:45 PM 59.0 °F 53.6 °F 82% 29.94 in 10.0 mi NE 5.8 mph - N/A   Clear
9:55 PM 59.0 °F 53.6 °F 82% 29.94 in 10.0 mi NE 4.6 mph - N/A   Clear
10:15 PM 59.0 °F 52.9 °F 80% 29.95 in 10.0 mi NE 3.5 mph - N/A   Clear
10:35 PM 59.2 °F 53.1 °F 80% 29.95 in 10.0 mi NE 3.5 mph - N/A   Scattered Clouds
10:55 PM 59.0 °F 52.7 °F 80% 29.95 in 10.0 mi NNE 4.6 mph - N/A   Scattered Clouds
11:15 PM 59.0 °F 52.7 °F 80% 29.95 in 10.0 mi NE 3.5 mph - N/A   Scattered Clouds
11:35 PM 58.6 °F 52.9 °F 81% 29.95 in 10.0 mi Calm Calm - N/A   Scattered Clouds
11:55 PM 58.8 °F 53.1 °F 81% 29.94 in 10.0 mi NE 4.6 mph - N/A   Clear